Powrót do katalogu

COSMOS 886 DEB

AktywnyUNKNOWN
NORAD 9955·DEBRIS·🇷🇺 Russia

Wystrzelony Dec 27, 1976 z Baikonur Cosmodrome

Loading…

Następne Przeloty (najbliższe 24 godziny)

TLE

ŚwieżeSource: Space-Track

Epoka: Sep 14, 2026, 10:42 UTC

1 09955U 76126AV  26257.44639458 -.00000030  00000-0  22005-4 0  9992
2 09955  65.8438 268.6071 1058058 130.2174 239.6402 12.64077070   526

Śledź COSMOS 886 DEB w czasie rzeczywistym z AllMySat

Download on the App Store